GW2062 Weather Reports


time (UTC)temp
F
wind
direction
speed
knots
gust
knots
rain 1hr
in
rain 24hr
in
rain mn
in
humidity
%
barometer
mb
20260506092056 42 127 0.0 3.5 0.00 0.02 0.02 80 1004.8
20260506091556 42 60 0.0 3.5 0.00 0.02 0.02 80 1004.8
20260506091059 42 51 0.0 4.3 0.00 0.02 0.02 79 1004.7
20260506090555 42 76 0.0 1.7 0.00 0.02 0.02 79 1004.7
20260506090109 42 112 0.0 1.7 0.00 0.02 0.02 78 1004.7
20260506085554 42 46 0.0 4.3 0.00 0.02 0.02 78 1004.7
20260506085055 42 276 0.0 5.2 0.00 0.02 0.02 77 1004.8
20260506084628 42 107 0.0 5.2 0.00 0.02 0.02 77 1004.8
20260506084056 43 249 0.0 5.2 0.00 0.02 0.02 76 1004.7
20260506083556 43 348 0.0 3.5 0.00 0.02 0.02 76 1004.7
20260506083057 43 76 0.0 0.0 0.00 0.02 0.02 77 1004.8
20260506082555 43 53 0.0 0.0 0.00 0.02 0.02 78 1004.7
20260506082054 43 56 0.0 0.0 0.00 0.02 0.02 78 1004.7
20260506081609 43 300 0.0 0.0 0.00 0.02 0.02 78 1004.7
20260506081054 43 293 0.0 0.0 0.00 0.02 0.02 78 1004.8
20260506080553 43 285 0.0 0.0 0.00 0.02 0.02 78 1004.9
20260506073050 44 87 0.0 0.0 0.00 0.02 0.02 78 1004.5
20260506072548 44 285 0.0 0.0 0.00 0.02 0.02 77 1004.4
20260506072050 44 251 0.0 0.0 0.00 0.02 0.02 77 1004.3
20260506071548 45 290 0.0 0.0 0.00 0.02 0.02 77 1004.4
20260506071046 45 305 0.0 0.0 0.00 0.02 0.02 77 1004.4
20260506070546 45 274 0.0 0.0 0.00 0.02 0.02 76 1004.3
20260506062041 48 110 0.0 0.0 0.00 0.02 0.02 67 1004.0
20260506061543 48 287 0.0 0.0 0.00 0.02 0.02 66 1003.9
20260506061040 48 288 0.0 0.0 0.00 0.02 0.02 64 1003.8
20260506060539 48 288 0.0 0.0 0.00 0.02 0.02 64 1003.6
20260506051036 49 226 0.0 0.0 0.00 0.02 0.02 59 1003.6
20260506050536 49 235 0.0 0.0 0.00 0.02 0.02 60 1003.5
20260506045036 49 243 0.0 0.0 0.00 0.02 0.02 58 1003.6
20260506044538 49 217 0.0 0.0 0.00 0.02 0.02 58 1003.6
20260506044036 49 271 0.0 0.0 0.00 0.02 0.02 59 1003.7
20260506043533 50 254 0.0 0.0 0.00 0.02 0.02 58 1003.6
20260506043033 50 253 0.0 0.0 0.00 0.02 0.02 58 1003.7
20260506042533 50 290 0.0 0.0 0.00 0.02 0.02 58 1003.6
20260506042033 50 269 0.0 0.0 0.00 0.02 0.02 58 1003.7
20260506041549 50 283 0.0 0.0 0.00 0.02 0.02 58 1003.9
20260506041032 50 243 0.0 0.0 0.00 0.02 0.02 59 1003.9
20260506040532 50 243 0.0 0.0 0.00 0.02 0.02 59 1003.8
20260506040033 50 245 0.0 0.0 0.00 0.02 0.02 61 1003.8
20260506035535 50 288 0.0 0.0 0.00 0.02 0.02 60 1003.7
20260506035032 50 261 0.0 0.0 0.00 0.02 0.02 62 1003.8
20260506034547 50 243 0.0 0.0 0.00 0.02 0.02 62 1003.9
20260506034031 50 243 0.0 0.0 0.00 0.02 0.02 61 1003.8
20260506033530 50 245 0.0 0.0 0.00 0.02 0.02 62 1003.7
20260506033031 50 243 0.0 0.0 0.00 0.02 0.02 61 1003.8
20260506032533 50 247 0.0 0.0 0.00 0.02 0.02 62 1003.6
20260506032031 50 272 0.0 0.0 0.00 0.02 0.02 64 1003.7
20260506031531 50 274 0.0 0.0 0.00 0.02 0.02 65 1003.8
20260506031031 51 251 0.0 0.0 0.00 0.02 0.02 66 1003.9
20260506030531 51 251 0.0 0.0 0.00 0.02 0.02 65 1004.1
20260506030032 51 251 0.0 0.0 0.00 0.02 0.02 63 1003.9
20260506025533 51 224 0.0 0.0 0.00 0.02 0.02 63 1003.8
20260506025030 51 288 0.0 0.0 0.00 0.02 0.02 66 1004.0
20260506024534 51 215 0.0 0.0 0.00 0.02 0.02 67 1004.0
20260506024033 51 238 0.0 0.0 0.00 0.02 0.02 68 1004.2
20260506023533 51 243 0.0 0.0 0.00 0.02 0.02 70 1004.2
20260506023030 51 264 0.0 0.0 0.00 0.02 0.02 72 1004.0
20260506022529 51 241 0.0 0.0 0.00 0.02 0.02 73 1003.8
20260506022029 51 236 0.0 0.0 0.00 0.02 0.02 74 1003.7
20260506021529 51 236 0.0 0.0 0.00 0.02 0.02 73 1003.6
20260506021029 51 241 0.0 0.0 0.00 0.02 0.02 75 1003.7
20260506020531 51 241 0.0 0.0 0.00 0.02 0.02 74 1003.7
20260506020027 51 241 0.0 0.0 0.00 0.02 0.02 73 1003.5
20260506015527 51 267 0.0 0.0 0.00 0.02 0.02 75 1003.4
20260506015028 50 239 0.0 0.0 0.00 0.02 0.02 83 1003.4
20260506014525 50 239 0.0 0.0 0.00 0.02 0.02 83 1003.4
20260506014025 50 131 0.0 0.0 0.00 0.02 0.02 85 1003.4
20260506013525 50 131 0.0 0.0 0.00 0.02 0.02 86 1003.5
20260506013037 50 131 0.0 0.0 0.00 0.02 0.02 86 1003.5
20260506012524 50 131 0.0 0.0 0.00 0.02 0.02 87 1003.5
20260506012024 50 131 0.0 0.0 0.00 0.02 0.02 86 1003.4
20260506011527 50 131 0.0 0.0 0.00 0.02 0.02 86 1003.4
20260506011024 50 131 0.0 0.0 0.00 0.02 0.02 86 1003.3
20260506010524 50 131 0.0 0.0 0.00 0.02 0.02 86 1003.3
20260506010025 50 131 0.0 0.0 0.00 0.02 0.02 86 1003.4
20260506005526 50 131 0.0 0.0 0.00 0.02 0.02 86 1003.2
20260506005023 51 131 0.0 0.0 0.00 0.02 0.02 86 1003.2
20260506004523 51 131 0.0 0.0 0.00 0.02 0.02 86 1003.2
20260506004022 51 131 0.0 0.0 0.00 0.02 0.02 85 1003.2
20260506003522 51 131 0.0 0.0 0.00 0.02 0.02 84 1003.1
20260506003022 51 131 0.0 0.0 0.00 0.02 0.02 84 1003.0
20260506002522 52 131 0.0 0.0 0.00 0.02 0.02 83 1003.0
20260506002022 52 131 0.0 0.0 0.00 0.02 0.02 82 1002.9
20260506001522 52 131 0.0 0.0 0.00 0.02 0.02 82 1002.9
20260506001022 52 131 0.0 0.0 0.00 0.02 0.02 82 1002.9
20260506000523 52 131 0.0 0.0 0.00 0.02 0.02 82 1002.9
20260506000022 52 131 0.0 0.0 0.00 0.02 0.02 81 1002.6
20260505235521 52 131 0.0 0.0 0.00 0.02 0.02 81 1002.7
20260505235022 53 131 0.0 0.0 0.00 0.02 0.02 80 1002.5
20260505234524 53 131 0.0 0.0 0.00 0.02 0.02 80 1002.5
20260505234024 53 194 0.0 0.0 0.00 0.02 0.02 80 1002.4
20260505233527 53 194 0.0 0.0 0.00 0.02 0.02 80 1002.5
20260505233027 53 194 0.0 0.0 0.00 0.02 0.02 80 1002.5
20260505232523 53 194 0.0 0.0 0.00 0.02 0.02 81 1002.5
20260505232023 53 194 0.0 0.0 0.00 0.02 0.02 80 1002.5
20260505231527 53 127 0.0 0.0 0.00 0.02 0.02 81 1002.6
20260505231021 53 259 0.0 0.0 0.00 0.02 0.02 80 1002.5
20260505230522 53 284 0.0 0.0 0.00 0.02 0.02 80 1002.6
20260505230022 53 285 0.0 0.0 0.00 0.02 0.02 80 1002.6
20260505225522 53 242 0.0 0.0 0.00 0.02 0.02 80 1002.6
20260505225022 53 276 0.0 0.9 0.00 0.02 0.02 80 1002.6
20260505224520 53 276 0.0 0.9 0.00 0.02 0.02 80 1002.6
20260505224019 53 92 0.0 0.0 0.00 0.02 0.02 80 1002.6
20260505223522 53 236 0.0 0.0 0.00 0.02 0.02 81 1002.7
20260505223018 53 235 0.0 0.0 0.00 0.02 0.02 80 1002.8
20260505222522 53 279 0.0 0.0 0.00 0.02 0.02 81 1002.7
20260505222018 53 253 0.0 0.0 0.00 0.02 0.02 82 1002.8
20260505221518 53 307 0.0 0.0 0.00 0.02 0.02 82 1002.7
20260505221020 53 146 0.0 0.0 0.00 0.02 0.02 84 1002.6
20260505220516 53 161 0.0 0.0 0.00 0.02 0.02 85 1002.6
20260505220029 53 225 0.0 0.0 0.00 0.02 0.02 86 1002.6
20260505215517 52 208 0.0 0.0 0.00 0.02 0.02 86 1002.6
20260505215017 52 229 0.0 0.0 0.00 0.02 0.02 86 1002.6
20260505214522 52 229 0.0 0.0 0.00 0.02 0.02 86 1002.6
20260505214018 52 229 0.0 0.0 0.00 0.02 0.02 85 1002.6
20260505213518 52 199 0.0 0.0 0.00 0.02 0.02 85 1002.6
20260505213017 52 187 0.0 0.0 0.00 0.02 0.02 85 1002.8
20260505212517 52 202 0.0 0.0 0.00 0.02 0.02 84 1002.8
20260505212017 52 136 0.0 0.0 0.00 0.02 0.02 85 1002.6
20260505211517 52 135 0.0 0.0 0.00 0.02 0.02 85 1002.6
20260505211019 52 108 0.0 0.0 0.00 0.02 0.02 84 1002.7
20260505210518 52 216 0.0 0.0 0.00 0.02 0.02 84 1002.7
20260505210017 52 155 0.0 0.0 0.00 0.02 0.02 83 1002.6
20260505205516 53 211 0.0 0.0 0.00 0.02 0.02 83 1002.6
20260505205015 53 110 0.0 0.0 0.00 0.02 0.02 82 1002.6
20260505204519 53 110 0.0 0.0 0.00 0.02 0.02 82 1002.6
20260505204018 53 259 0.0 0.0 0.00 0.02 0.02 83 1002.5
20260505203518 53 156 0.0 0.0 0.00 0.02 0.02 83 1002.7
20260505203019 52 224 0.0 0.0 0.00 0.02 0.02 82 1002.7
20260505202517 52 210 0.0 0.0 0.00 0.02 0.02 83 1002.8
20260505202016 52 218 0.0 0.0 0.00 0.02 0.02 83 1002.8
20260505201514 52 190 0.0 0.0 0.00 0.02 0.02 83 1002.8
20260505201013 52 190 0.0 0.0 0.00 0.02 0.02 83 1002.9
20260505200515 52 179 0.0 0.0 0.00 0.02 0.02 82 1002.9
20260505200017 52 150 0.0 0.0 0.00 0.02 0.02 81 1003.0
20260505195512 52 91 0.0 0.0 0.00 0.02 0.02 82 1002.9
20260505195015 52 224 0.0 0.0 0.00 0.02 0.02 81 1003.1
20260505194509 52 88 0.0 0.0 0.00 0.02 0.02 81 1003.1
20260505194009 51 199 0.0 0.0 0.00 0.02 0.02 81 1003.0
20260505193508 51 261 0.0 0.0 0.00 0.02 0.02 81 1003.0
20260505193010 51 211 0.0 0.0 0.00 0.02 0.02 81 1003.2
20260505192509 51 211 0.0 0.0 0.00 0.02 0.02 81 1003.1
20260505192006 51 211 0.0 0.0 0.00 0.02 0.02 79 1003.2
20260505191515 51 306 0.0 0.0 0.00 0.02 0.02 80 1003.4
20260505191011 51 307 0.0 0.0 0.00 0.02 0.02 79 1003.0
20260505190509 51 288 0.0 0.0 0.00 0.02 0.02 78 1003.0
20260505190006 51 216 0.0 0.0 0.00 0.02 0.02 79 1003.0
20260505185503 51 99 0.0 0.0 0.00 0.02 0.02 80 1002.9
20260505185003 51 99 0.0 0.0 0.00 0.02 0.02 79 1002.8
20260505184505 51 99 0.0 0.0 0.00 0.02 0.02 79 1002.8
20260505184005 50 82 0.0 0.0 0.00 0.02 0.02 79 1002.8
20260505183503 50 352 0.0 0.0 0.00 0.02 0.02 80 1002.7
20260505183002 50 341 0.0 0.0 0.00 0.02 0.02 78 1002.7
20260505182503 50 286 0.0 0.0 0.00 0.02 0.02 80 1002.8
20260505182002 49 285 0.0 0.0 0.00 0.02 0.02 80 1002.8
20260505181503 49 285 0.0 0.0 0.00 0.02 0.02 79 1002.8
20260505181003 49 285 0.0 0.0 0.00 0.02 0.02 80 1002.6
20260505180502 49 277 0.0 0.0 0.01 0.02 0.02 80 1002.5
20260505180002 49 277 0.0 0.0 0.01 0.02 0.02 81 1002.6
20260505175504 48 277 0.0 0.0 0.01 0.02 0.02 82 1002.6
20260505175002 48 36 0.0 0.0 0.02 0.02 0.02 81 1002.5
20260505174502 48 36 0.0 0.0 0.02 0.02 0.02 81 1002.5
20260505174002 47 38 0.0 0.0 0.02 0.02 0.02 83 1002.3
20260505173503 47 103 0.0 0.0 0.02 0.02 0.02 83 1002.4
20260505173001 47 131 0.0 0.0 0.02 0.02 0.02 83 1002.6
20260505172501 46 111 0.0 0.0 0.02 0.02 0.02 83 1002.6
20260505172100 46 112 0.0 0.0 0.02 0.02 0.02 82 1002.6
20260505171601 46 112 0.0 0.0 0.02 0.02 0.02 83 1002.6
20260505171100 46 112 0.0 0.0 0.02 0.02 0.02 85 1002.7
20260505170601 46 113 0.0 0.0 0.01 0.01 0.01 83 1002.6
20260505170058 46 113 0.0 0.0 0.01 0.01 0.01 82 1002.4
20260505165558 46 113 0.0 0.0 0.01 0.01 0.01 81 1002.4
20260505165059 46 113 0.0 0.0 0.00 0.00 0.00 78 1002.3
20260505164056 46 113 0.0 0.0 0.00 0.02 0.00 79 1002.5
20260505163553 46 113 0.0 0.0 0.00 0.02 0.00 76 1002.5
20260505163057 46 113 0.0 0.0 0.00 0.02 0.00 76 1002.6
20260505162551 47 56 0.0 0.0 0.00 0.02 0.00 75 1002.7
20260505162051 47 52 0.0 0.0 0.00 0.02 0.00 73 1002.7
20260505161551 47 343 0.0 0.0 0.00 0.02 0.00 73 1002.7
20260505161050 47 86 0.0 0.0 0.00 0.02 0.00 71 1002.7
20260505160552 48 22 0.0 0.9 0.00 0.02 0.00 71 1002.9
20260505153047 48 81 0.0 0.0 0.00 0.02 0.00 65 1002.1
20260505152547 48 142 0.0 0.9 0.00 0.02 0.00 66 1001.9
20260505152146 49 89 0.0 0.9 0.00 0.02 0.00 63 1001.9
20260505151546 49 39 0.0 0.9 0.00 0.02 0.00 64 1001.8
20260505151046 49 49 0.0 0.0 0.00 0.02 0.00 61 1001.7
20260505150545 49 47 0.0 0.0 0.00 0.02 0.00 61 1001.9
20260505140538 49 70 0.0 0.9 0.00 0.02 0.00 68 1000.8
20260505125030 48 63 0.0 0.9 0.00 0.02 0.00 69 1000.1
20260505124032 48 7 0.0 0.9 0.00 0.02 0.00 70 1000.2
20260505123528 48 285 0.0 0.9 0.00 0.02 0.00 69 1000.1
20260505123030 48 65 0.0 0.0 0.00 0.02 0.00 71 1000.1
20260505122530 48 60 0.0 1.7 0.00 0.02 0.00 71 999.8
20260505122028 48 77 0.0 1.7 0.00 0.02 0.00 70 999.8
20260505121533 48 50 0.0 1.7 0.00 0.02 0.00 71 999.7
20260505121027 48 53 0.0 2.6 0.00 0.02 0.00 69 999.6
20260505120528 48 61 0.0 2.6 0.00 0.02 0.00 70 999.3
20260505120025 48 63 0.0 2.6 0.00 0.02 0.00 72 999.4
20260505115522 47 95 0.0 3.5 0.00 0.02 0.00 73 999.4
20260505115022 47 96 0.0 3.5 0.00 0.02 0.00 74 999.2
20260505114024 47 53 0.0 5.2 0.00 0.02 0.00 74 999.0
20260505113525 47 244 0.0 0.9 0.00 0.02 0.00 74 998.7
20260505113022 47 34 0.0 0.9 0.00 0.02 0.00 75 998.7
20260505112522 47 87 0.0 0.9 0.00 0.02 0.00 74 998.8
20260505112025 47 63 0.0 3.5 0.00 0.02 0.00 74 998.6
20260505111520 47 50 0.0 3.5 0.00 0.02 0.00 73 998.4
20260505111023 47 47 0.0 1.7 0.00 0.02 0.00 74 998.7
20260505110522 47 68 0.0 0.9 0.00 0.02 0.00 73 998.7
20260505102017 48 105 0.0 0.9 0.00 0.02 0.02 80 997.3
20260505101513 48 63 0.0 0.9 0.00 0.02 0.02 81 997.1
20260505101013 48 39 0.0 2.6 0.00 0.02 0.02 82 997.2
20260505100513 49 77 0.0 2.6 0.00 0.02 0.02 82 997.2
20260505100017 51 80 0.0 0.9 0.00 0.02 0.02 80 997.1
20260505095513 54 57 0.0 5.2 0.00 0.02 0.02 76 997.0
20260505095014 58 206 0.0 0.0 0.00 0.02 0.02 82 996.7
20260505094012 58 206 0.0 0.0 0.00 0.02 0.02 81 996.2
20260505093512 58 206 0.0 0.0 0.00 0.02 0.02 80 995.8
20260505093012 59 206 0.0 0.0 0.00 0.02 0.02 80 995.8
20260505092511 59 206 0.0 0.0 0.00 0.02 0.02 79 995.7